Location: Devore Heights
(34.2372°N, 117.4156°W)
Time: 20:27:50
(UTC+00:00)

Tiros 1 despin weight - Pass Details

Date: 20 September 2024
Orbit: 572 x 613 km, 48.2° (Epoch: 13 October)

Event Time Altitude Azimuth Distance (km) Brightness Sun altitude
Exits shadow 12:38:54 - 316° (NW) 2,579 ? -12.7°
Reaches altitude 10° 12:41:07 10° 334° (NNW) 1,974 ? -12.3°
Maximum altitude 12:43:53 16° 11° (NNE) 1,630 ? -11.7°
Drops below altitude 10° 12:46:40 10° 49° (NE) 1,974 ? -11.1°
Sets 12:49:49 0° 72° (ENE) 2,877 ? -10.5°
